Tracking 30995 objects as of 5-Jul-2025
HD Live streaming from Space Station
objects crossing your sky now

SL-8 R/B

Track SL-8 R/B now!
10-day predictions


NORAD ID: 8295
Int'l Code: 1975-086J
Perigee: 1,489.2 km
Apogee: 1,692.2 km
Inclination: 74.0 °
Period: 117.8 minutes
Semi major axis: 7961 km
RCS: 6.5123 m2 (large)
Launch date: September 17, 1975
Source: Commonwealth of Independent States (former USSR) (CIS)
Launch site: PLESETSK MISSILE AND SPACE COMPLEX (PKMTR)

Note: This is a ROCKET BODY
Your satellite tracking list
Your tracking list is empty




NASA's NSSDC Master Catalog

Two Line Element Set (TLE):
1  8295U 75086J   25186.48369247  .00000090  00000-0  96754-3 0  9998
2  8295  74.0092 183.7062 0127479 281.7374 194.5328 12.22067955222161
Source of the keplerian elements: AFSPC